Lid_Strength_Index
1 1 1 1 1 1 0 -0 -0 -0 -0 -1 -1 -1 -1 -1 -0 1 4 1 1 -0 1 3 3 4 4 5 4 6 11 13 12 11 10 8 9 8 8 8 6 6 6 4 3
0 0 1 0 0 1 0 0 0 -0 -0 -1 -1 -1 -1 -1 1 3 -0 -1 -1 -0 3 4 5 4 6 6 6 8 11 11 8 9 9 9 8 9 8 8 8 7 4 3 3
-1 -0 0 0 0 0 1 1 0 0 0 -0 -1 -1 -1 -0 4 4 -1 -1 -1 1 3 3 4 5 7 6 7 8 10 9 8 7 7 9 8 8 8 9 7 8 6 4 4
-2 -1 -1 -0 0 -0 0 1 0 0 0 -0 -1 -1 -1 1 11 2 -1 -1 -1 2 3 4 5 7 9 9 6 10 7 8 7 7 7 8 7 9 8 8 5 5 4 4 4
-2 -2 -1 -1 -1 -0 0 1 1 0 0 0 -1 -1 1 5 6 -0 -1 -1 1 3 4 5 6 7 10 8 7 9 8 7 7 7 8 8 9 8 8 7 4 4 4 5 4
-2 -2 -2 -1 -1 -1 -1 1 1 0 0 0 -1 -1 3 9 0 -1 -0 1 1 3 4 5 6 5 8 8 9 8 8 8 7 7 7 8 9 8 8 5 5 5 5 5 4
-2 -2 -2 -1 -1 -1 -1 -1 0 0 0 0 -1 0 4 6 1 -1 0 1 1 2 5 4 4 6 6 9 6 7 9 8 8 8 8 8 10 10 7 5 6 6 5 5 5
-2 -2 -2 -1 -1 -1 -1 -1 -1 -0 0 0 -1 1 6 0 -1 0 0 1 1 1 2 3 3 5 7 6 8 9 9 13 9 8 8 8 12 9 7 6 7 6 6 5 5
-1 -1 -1 -1 -2 -1 -1 -1 -1 -1 -0 0 3 4 7 -0 3 1 0 3 2 2 2 2 4 7 7 11 13 11 15 13 11 9 10 9 12 9 8 6 7 7 7 6 5
-1 -1 -2 -1 -1 -1 -1 -1 -1 -1 1 1 3 8 5 6 3 2 1 1 4 4 5 6 7 10 10 12 17 15 15 12 13 10 11 11 11 11 9 7 7 8 8 7 7
-1 -1 -2 -1 -1 -1 -0 2 5 6 5 7 8 8 6 4 1 3 2 3 4 6 10 8 11 13 12 10 10 11 13 13 12 10 12 12 11 11 10 10 10 9 8 7 7
-2 -2 -2 -1 -1 -1 1 5 5 4 8 4 5 6 5 4 7 5 2 7 8 11 9 11 13 10 9 9 11 12 13 14 11 11 11 13 12 12 10 10 9 9 9 8 10
-1 -1 -2 -2 -2 1 4 3 1 2 9 7 5 6 5 4 7 7 4 6 9 11 11 13 11 9 10 11 13 12 13 14 13 11 11 13 13 13 11 10 10 9 9 10 11
-1 -1 -2 -2 2 3 5 1 1 3 13 12 8 6 5 4 8 4 3 6 9 11 10 11 9 10 11 12 11 15 11 11 12 14 17 12 19 13 12 12 10 9 9 10 11
-1 -2 -2 -1 4 5 2 1 2 5 24 10 8 3 4 7 7 7 3 6 10 11 10 12 11 11 13 11 10 13 10 11 12 14 14 15 17 14 13 13 11 10 12 12 11
-1 -2 -2 2 3 3 1 2 5 17 22 12 8 9 9 8 8 7 7 5 6 10 10 10 8 9 10 9 9 9 11 12 12 14 19 16 16 16 14 13 12 12 12 11 11
-2 -2 0 1 4 1 2 6 16 22 12 13 12 10 10 11 10 9 10 11 13 15 15 12 11 10 9 11 10 10 13 19 20 20 20 16 16 15 14 12 11 12 12 11 11
-1 -0 1 1 2 2 4 9 17 19 15 9 10 10 13 11 12 11 11 13 10 11 14 16 17 11 9 11 13 12 13 18 22 21 20 17 18 15 14 13 13 13 11 12 12
-0 2 4 2 2 3 8 15 19 15 10 11 11 13 13 12 12 11 12 12 11 10 15 16 16 10 10 10 10 13 15 14 18 19 20 19 18 15 13 14 13 13 12 12 12
4 6 5 2 2 6 13 13 14 9 9 11 14 12 15 13 13 13 12 10 11 9 9 12 17 11 11 8 9 11 11 16 17 22 23 21 19 19 15 14 13 13 12 12 11
6 10 4 2 5 11 18 17 11 8 9 11 12 13 13 14 12 13 13 10 9 10 9 11 13 14 10 12 13 13 14 14 14 17 21 22 20 16 15 13 13 12 12 11 11
8 14 4 5 13 13 17 11 9 9 7 9 10 11 12 12 13 13 13 11 9 9 11 10 12 16 15 11 11 11 12 13 17 19 18 18 19 14 14 13 12 13 12 11 10
9 10 5 6 18 21 11 11 9 10 9 10 11 10 12 12 14 12 11 8 8 9 11 10 13 18 16 12 11 13 12 11 13 15 19 20 19 13 13 12 12 11 11 10 10
10 15 12 10 9 12 12 11 12 10 10 9 10 9 11 13 12 13 12 9 8 9 7 9 13 15 17 15 12 14 13 12 13 18 18 17 17 15 14 12 11 11 10 10 9
10 12 13 17 15 12 11 11 13 14 11 10 12 12 12 14 13 13 11 10 9 8 10 11 17 15 14 13 12 12 12 12 14 14 16 15 15 14 12 11 10 10 10 10 10
12 13 11 18 12 12 11 13 12 12 12 12 13 12 12 13 13 14 11 11 12 9 11 11 16 15 17 14 14 15 13 13 13 13 13 13 13 10 9 10 11 10 10 10 10
8 8 11 11 14 16 14 12 12 11 11 10 11 12 13 13 11 11 11 10 10 11 11 12 15 20 22 17 16 18 15 14 13 12 12 14 11 10 11 11 11 10 10 10 10